www.pogodaiklimat.ru

Погода и климат >> Архив погоды >> Россия >> Ставропольский край >> Буденновск


АРХИВ ПОГОДЫ в Буденновске

Время (UTC), дата Ветер
(напр.,м/с)
 
Видим.   Явления Облачность Т
(С)
Тd
(С)
f
(%)
Тe
(С)
Тes
(С)
Комфортность P
(гПа)
Po
(гПа)
Тmin
(С)
Tmax
(С)
R
(мм)
R24
(мм)
S
(см)
18 19.05 С 1 20 км 9/0
[Ac cuf]
+20.6 +11.1 54 +24 +24 комфорт 1012.0 996.3
21 19.05 СВ 1 20 км 9/0
[Ac trans]
+19.4 +9.8 54 +21 +21 комфорт 1012.0 996.3
00 20.05 СВ 1 20 км 9/0
[Ci]
+17.4 +11.7 69 +18 +18 1012.5 996.7
03 20.05 С 1 10 км 10/0
[Ac lent]
+17.3 +10.4 64 +18 +19 1013.1 997.2 +15.5
06 20.05 В 2 10 км 10/0
[Ac lent]
+21.1 +13.4 61 +23 +26 комфорт 1014.5 998.8
09 20.05 СВ 2 10 км {ливн. осадки} 9/6 600 м
[Sc Ac trans Ci fib]
+24.2 +11.5 45 +26 +30 жарко 1015.1 999.6
12 20.05 СВ 2 10 км {ливн. осадки} 8/6 600 м
[Cu med, cong Ac trans]
+26.1 +10.4 37 +27 +30 жарко 1014.9 999.5
15 20.05 Ю 1 10 км 9/8 600 м
[Sc Ac trans]
+24.5 +13.1 49 +27 +27 жарко 1015.3 999.8 +27.1 0.5
18 20.05 СВ 4 20 км 9/9 600 м
[Sc]
+21.8 +4.5 32 +22 +22 комфорт 1016.9 1001.2
21 20.05 СВ 4 20 км ясно +16.5 +0.9 35 +16 +16 1017.9 1001.9
00 21.05 СВ 4 20 км 8/8 600 м
[Sc]
+14.0 -0.7 36 +13 +13 1019.0 1002.8
03 21.05 В 3 10 км 4/1 600 м
[Sc Ac trans]
+13.9 +0.7 40 +13 +14 1019.6 1003.4 +13.2
06 21.05 В 6
{10}
10 км 3/0
[Ci fib]
+20.7 +8.6 46 +22 +26 комфорт 1019.7 1003.9
09 21.05 В 4
{11}
10 км 1/1 600 м
[Cu hum]
+24.0 +9.8 41 +25 +36 комфорт 1019.2 1003.6
12 21.05 В 4
{10}
10 км 3/3 600 м
[Cu hum]
+26.1 +8.3 32 +26 +32 жарко 1018.2 1002.7
15 21.05 В 5-10
{11}
10 км 3/0
[Ci fib]
+23.3 +7.8 37 +24 +25 комфорт 1018.1 1002.5 +26.4
18 21.05 В 5
{12}
20 км 1/0
[Ci fib]
+17.6 +7.1 50 +17 +17 1019.7 1003.7
21 21.05 В 4
{10}
20 км 3/0
[Ci fib]
+14.0 +6.9 62 +13 +13 1019.9 1003.8
00 22.05 В 2 20 км 3/0
[Ci fib]
+12.1 +6.9 70 +11 +11 1019.2 1002.9
03 22.05 В 3 10 км 8/0
[Ci fib]
+12.3 +7.9 74 +11 +12 1018.4 1002.2 +11.2
06 22.05 В 5-10
{10}
10 км 8/0
[Ci sp]
+18.6 +6.4 45 +19 +24 1016.9 1001.0
09 22.05 В 5
{10}
10 км 9/0
[Ac trans Ci fib]
+22.6 +5.9 34 +23 +29 комфорт 1014.1 998.5
12 22.05 В 3
{10}
10 км 9/8 600 м
[Sc Ac trans Ci fib]
+23.7 +6.4 33 +24 +25 комфорт 1013.7 998.1
15 22.05 З 4 10 км в посл. час ливневой дождь 10/6 600 м
[Cb calv Ac und]
+18.6 +11.9 65 +19 +19 1014.7 998.9 +24.7 0.0
18 22.05 ЮЗ 2 20 км {ливн. осадки} 10/10 600 м
[Sc]
+16.4 +13.2 81 +17 +17 1014.8 998.9
21 22.05 штиль 0 4000 м дымка 3/0
[Ac trans]
+12.6 +11.2 91 +12 +12 1014.6 998.5
00 23.05 штиль 0 2000 м в посл. час туман 1/0
[Ac trans]
+11.0 +10.5 97 +10 +10 1014.2 997.9
03 23.05 ЮЗ 1 200 м туман 4/0
[Ac trans]
+11.7 +11.3 97 +11 +13 1014.1 997.9 +9.4 0.1
06 23.05 Ю 1 10 км {туман} 3/3 600 м
[Cu hum]
+19.7 +14.1 70 +23 +32 комфорт 1013.1 997.4
09 23.05 Ю 2 10 км осадки на расстоянии 8/5 600 м
[Cb calv Ci fib]
+25.9 +9.9 36 +27 +35 жарко 1010.6 995.3
12 23.05 В 1
{12}
10 км в посл. час гроза {ливн. осадки} 3/3 600 м
[Cb cap]
+19.5 +14.3 72 +22 +32 комфорт 1011.1 995.4
15 23.05 Ю 4
{16}
10 км гроза, ливневой дождь 8/6 600 м
[Cb cap Ac cuf]
+16.6 +14.1 85 +16 +16 1011.3 995.4 +26.0 6
18 23.05 Ю 1 4000 м дымка {гроза, ливн. осадки} 9/8 300 м
[Sc diur, vesp Ac cuf]
+15.5 +14.3 93 +16 +16 1012.7 996.7
21 23.05 ЮЗ 3 4000 м дымка {ливн. осадки} 3/0
[Ac cuf]
+14.7 +13.7 94 +14 +14 1012.9 996.9
00 24.05 Ю 2 4000 м дымка {ливн. осадки} ясно +13.7 +13.2 97 +13 +13 1012.0 996.0
03 24.05 ЮЗ 1 4000 м в посл. час туман 9/8 300 м
[Sc Ci fib]
+13.7 +13.2 97 +14 +14 1012.4 996.4 +12.3 0.3
06 24.05 ЮЗ 3 10 км {туман} 3/0
[Ci fib]
+20.8 +14.9 69 +24 +33 комфорт 1011.9 996.3
09 24.05 З 3 10 км 8/8 600 м
[Cu med, cong]
+24.5 +11.2 43 +26 +29 жарко 1011.3 995.8
12 24.05 С 1 10 км 8/6 600 м
[Cu med, cong Ci fib]
+25.5 +9.9 37 +26 +31 жарко 1010.4 995.0
15 24.05 ЮЗ 2 10 км 6/3 600 м
[Cu hum Ac trans Ci fib]
+25.7 +9.2 35 +26 +27 жарко 1010.3 994.9 +26.8
18 24.05 штиль 0 20 км 3/0
[Ci fib]
+18.2 +13.3 73 +18 +18 1011.3 995.6
21 24.05 штиль 0 20 км 4/0
[Ac trans Ci fib]
+17.6 +12.5 72 +18 +18 1010.7 995.0
00 25.05 В 1 10 км 8/8 600 м
[Sc]
+16.2 +12.2 77 +17 +17 1010.6 994.7
03 25.05 СВ 1 10 км 9/3 600 м
[Sc Ac trans]
+17.7 +12.2 70 +19 +19 1010.3 994.5 +14.8
06 25.05 В 4 10 км 4/0
[Ci fib]
+24.6 +12.9 48 +27 +34 жарко 1008.7 993.3
09 25.05 В 5-11
{12}
10 км 8/0
[Ci fib]
+28.2 +8.1 28 +28 +36 жарко 1007.0 991.8
12 25.05 В 5
{14}
10 км 9/5 600 м
[Sc Ac trans Ci fib]
+28.0 +6.7 26 +27 +29 жарко 1005.3 990.1
15 25.05 В 4 10 км 10/5 600 м
[Sc Ac und]
+25.8 +11.8 42 +27 +27 жарко 1007.0 991.7 +29.2
18 25.05 В 2
{13}
20 км {гроза, ливн. осадки} 1/1 600 м
[Sc]
+20.6 +13.3 63 +24 +24 комфорт 1008.6 993.0
21 25.05 штиль 0
{10}
20 км 1/0
[Ci fib]
+15.5 +12.2 81 +15 +15 1011.9 996.0
00 26.05 ЮЗ 1 10 км 1/1 600 м
[Sc]
+12.9 +11.4 91 +13 +13 1012.7 996.6
03 26.05 штиль 0 4000 м дымка 5/4 600 м
[Sc Ci fib]
+12.9 +11.9 94 +12 +13 1013.9 997.7 +12.0 0.5
06 26.05 СВ 1 4000 м слаб. ливневой дождь {гроза} 9/8 600 м
[Cb calv Ac trans]
+15.9 +14.4 91 +17 +18 1014.4 998.4
09 26.05 З 1 10 км {ливн. осадки} 6/4 1000 м
[Cu hum Ac trans]
+21.9 +13.2 58 +25 +35 комфорт 1013.7 998.1
12 26.05 З 4 10 км слаб. ливневой дождь 10/6 600 м
[Cb calv Ac und]
+21.1 +14.8 67 +24 +25 комфорт 1014.1 998.4
15 26.05 СВ 1
{13}
10 км в посл. час ливневой дождь 9/6 600 м
[Cb calv Ac trans Ci fib]
+17.0 +14.7 86 +18 +18 1014.4 998.5 +22.8 6

 

Местоположение метеостанции Буденновск (Ставропольский край, Россия): широта 44.78 долгота 44.13 высота над уровнем моря 136 м.

В архиве по умолчанию представлена погода в Буденновске за последнюю неделю. Архивные данные за месяц целиком и за предыдущие месяцы, начиная с января 2011 года, Вы можете получить, выбрав интересующий диапазон дат из раскрывающегося списка и нажав кнопку "Ввод!".


*Определитесь, кто Вы:
робот инопланетянин человек

Внимание! Время в таблицах - всемирное. Для получения местного времени необходимо прибавить поправку, которая равна 3 ч.

Смотрите также архив погоды в соседних городах и на ближайших метеорологических станциях:

Погода в Зеленокумске (Ставропольский край, Россия) (44 км)
Погода в Благодарном (Ставропольский край, Россия) (64 км)
Погода в Арзгире (Ставропольский край, Россия) (69 км)
Погода в Александровском (Ставропольский край, Россия) (90 км)
Погода в Георгиевске (Ставропольский край, Россия) (90 км)
Погода в Минеральных Водах (Ставропольский край, Россия) (103 км)
Погода в Рощино (Ставропольский край, Россия) (110 км)
Погода в Прохладный (Кабардино-Балкария, Россия) (115 км)
Погода в Светлограде (Ставропольский край, Россия) (119 км)
Погода в Ики-Буруле (Калмыкия, Россия) (120 км)

Пояснения к столбцам:

Ветер - указаны скорость ветра в м/с - средняя за 10 мин, порывы в срок и между сроками (в фигурных скобках) и направление, откуда дует ветер: С - северный, СВ - северо-восточный, В - восточный, ЮВ - юго-восточный, Ю - южный, ЮЗ - юго-западный, З - западный, СЗ - северо-западный.
Видимость - горизонтальная дальность видимости в метрах или километрах. При видимости от 1 до 10 км при отсутствии осадков обычно наблюдается дымка, при ухудшении видимости до 1 км и менее - туман. В сухую погоду видимость может ухудшаться дымом, пылью или мглою.
Явления - указаны атмосферные явления, наблюдавшиеся в срок или в последний час перед сроком; фигурными скобками обозначены явления, наблюдавшиеся между сроками (за 1-3 часа до срока); квадратными скобками обозначены град или гололедные отложения с указанием их диаметра в мм.
Облачность - указаны через наклонную черту общая и нижняя облачность в баллах и высота нижней границы облаков в метрах; квадратными скобками обозначены формы облаков: Ci - перистые, Cs - перисто-слоистые, Cc - перисто-кучевые, Ac - высококучевые, As - высокослоистые, Sc - слоисто-кучевые, Ns - слоисто-дождевые, Cu - кучевые, Cb - кучево-дождевые. Подробнее классификацию облаков см. в Атласе облаков (PDF).
T - Температура воздуха - температура, измеренная на высоте 2 м над землей.
Td - Температура точки росы - температура, при понижении до которой содержащийся в воздухе водяной пар достигнет насыщения.
f - Относительная влажность воздуха - влажноcть воздуха, измеренная на высоте 2 м над землей.
Te - Эффективная температура - температура, которую ощущает одетый по сезону человек в тени. Характеристика душности погоды. При расчете учитывается влияние влажности воздуха и скорости ветра на теплоощущения человека.
Tes - Эффективная температура на солнце - температура, которую ощущает человек, с поправкой на солнечный нагрев. Характеристика знойности погоды. Зависит от высоты солнца над горизонтом, облачности и скорости ветра. Ночью, в пасмурную погоду, а также при ветре 12 м/с и более поправка равна нулю.
P - Атмосферное давление - приведенное к уровню моря атмосферное давление.
Po - Атмосферное давление - измеренное на уровне метеостанции атмосферное давление.
Tmin - Минимальная температура - минимум температуры воздуха на высоте 2 м над землей.
Tmax - Максимальная температура - максимум температуры воздуха на высоте 2 м над землей.
R - Количество осадков - Количество выпавших осадков за период времени, мм. При наведении курсора мыши на число - период времени, за который выпало указанное количество осадков.
R24 - Количество осадков - Количество выпавших осадков за 24 часа, мм.
S - Снежный покров - Высота снежного покрова, см. При наведении курсора мыши на число - состояние снежного покрова и степень покрытия местности в баллах.